Flag for U.S.A. Weather past 2 weeks in Escondido, California, U.S.A.

Now
94 °F

Sunny.


Feels Like: 90 °F
Forecast: 61 / 91 °F
Wind: 9 mph from West

Location: Ramona Airport

Current Time: Aug 29, 2014 at 3:42:13 PM

Latest Report: Aug 29, 2014 at 2:53 PM


Visibility: 10 mi

Pressure: 29.81 "Hg

Humidity: 17%

Dew point: 43 °F

Location of EscondidoLocation

Historic Weather in Escondido — Graph

°F

Escondido temperature yesterday

Maximum temperature yesterday: 95 °F (at 11:53 AM)
Minimum temperature yesterday: 60 °F (at 4:53 AM)
Average temperature yesterday: 77 °F

Past Weeks' High & Low Weather Summary

 TemperatureHumidityPressure
High95 °F (Aug 28, 11:53 AM)100% (Aug 24, 5:53 AM)30.02 "Hg (Aug 24, 5:53 AM)
Low47 °F (Aug 24, 4:53 AM)19% (Aug 29, 1:53 PM)29.78 "Hg (Aug 18, 4:53 PM)
Average73 °F54%29.91 "Hg
* Reported Aug 14 1:53 PM — Aug 29 1:53 PM, Escondido, Weather by CustomWeather, © 2014

Note: Actual official high and low records may vary slightly from our data, if they occured in-between our weather recording intervals... More about our weather records

Advertising

Escondido weather history for previous 24 hours

 ConditionsComfort  
Time TempWeatherWind HumidityBarometerVisibility
1:53 PM
Aug 29
94 °FSunny.12 mph19%29.82 "Hg10 mi
11:53 AM91 °FHot.12 mph28%29.85 "Hg10 mi
10:53 AM88 °FSunny.10 mph28%29.87 "Hg10 mi
9:53 AM86 °FSunny.9 mph26%29.87 "Hg10 mi
8:53 AM81 °FSunny.No wind32%29.87 "Hg10 mi
7:53 AM71 °FSunny.No wind45%29.88 "Hg10 mi
6:53 AM61 °FClear.No wind58%29.88 "Hg10 mi
5:53 AM60 °FClear.No wind62%29.85 "Hg10 mi
4:53 AM60 °FClear.No wind62%29.85 "Hg10 mi
3:53 AM60 °FClear.No wind58%29.87 "Hg10 mi
2:53 AM59 °FClear.No wind60%29.87 "Hg10 mi
1:53 AM63 °FClear.No wind56%29.87 "Hg10 mi
12:53 AM65 °FClear.3 mph52%29.89 "Hg10 mi
11:53 PM
Aug 28
66 °FClear.3 mph47%29.90 "Hg10 mi
10:53 PM68 °FClear.3 mph45%29.90 "Hg10 mi
9:53 PM71 °FClear.3 mph42%29.91 "Hg10 mi
8:53 PM74 °FClear.No wind37%29.91 "Hg10 mi
7:53 PM75 °FSunny.7 mph39%29.91 "Hg10 mi
6:53 PM81 °FSunny.5 mph33%29.91 "Hg10 mi
5:53 PM86 °FSunny.12 mph31%29.90 "Hg10 mi
4:53 PM89 °FSunny.10 mph28%29.89 "Hg10 mi
3:53 PM90 °FSunny.17 mph27%29.90 "Hg10 mi
Weather by CustomWeather, © 2014

See weather overviewHow to use our weather pages